period_start,C,m1,H,J0,J1,J2,J3,J4,J5,JA,JB,JC,JD,JJ,JK,JN,#
2016-03-13 00:02:02,0.10,1.82,0.00,13.15,17.32,21.74,15.24,49.28,1027.55,2070.05,2878.65,2710.92,3069.07,599.87,623.02,20.40,0000 0000 0000 0000 000000
2016-03-13 00:07:03,0.11,1.83,0.00,13.17,17.31,21.77,15.32,49.38,1027.51,2070.04,2876.65,2709.57,3067.55,600.35,623.56,20.45,0000 0000 0000 0000 000000
2016-03-13 00:12:05,0.11,1.83,0.00,13.17,17.30,21.75,15.21,49.42,1027.41,2070.07,2874.56,2708.25,3066.00,599.81,622.85,20.50,0000 0000 0000 0000 000000
2016-03-13 00:17:07,0.11,1.84,0.00,13.18,17.30,21.77,15.36,49.48,1027.39,2070.05,2872.53,2706.81,3064.52,600.53,623.55,20.55,0000 0000 0000 0000 000000
2016-03-13 00:22:08,0.11,1.85,0.00,13.19,17.30,21.75,15.26,49.59,1027.38,2070.10,2870.70,2705.49,3063.00,599.75,622.67,20.60,0000 0000 0000 0000 000000
2016-03-13 00:27:09,0.09,1.85,0.00,13.19,17.31,21.77,15.33,49.51,1027.39,2070.06,2868.83,2704.34,3061.58,600.11,623.12,20.65,0000 0000 0000 0000 000000
2016-03-13 00:32:10,0.12,1.86,0.00,13.21,17.32,21.83,15.31,49.57,1027.37,2070.04,2866.63,2702.81,3060.00,600.16,623.10,20.70,0000 0000 0000 0000 000000
2016-03-13 00:37:12,0.11,1.86,0.00,13.23,17.32,21.81,15.28,49.59,1027.36,2070.03,2864.51,2701.44,3058.47,599.82,622.69,20.75,0000 0000 0000 0000 000000
2016-03-13 00:42:13,0.10,1.87,0.00,13.26,17.32,21.81,15.29,49.59,1027.36,2070.02,2862.57,2700.02,3056.81,599.83,622.57,20.80,0000 0000 0000 0000 000000
2016-03-13 00:47:14,0.10,1.87,0.00,13.27,17.34,21.82,15.28,49.55,1027.36,2070.02,2860.86,2698.80,3055.46,599.69,622.48,20.85,0000 0000 0000 0000 000000
2016-03-13 00:52:15,0.10,1.88,0.00,13.29,17.35,21.84,15.29,49.54,1027.36,2070.05,2859.07,2697.60,3054.05,599.97,622.72,20.90,0000 0000 0000 0000 000000
2016-03-13 00:57:17,0.10,1.88,0.00,13.30,17.37,21.86,15.32,49.73,1027.36,2070.03,2857.24,2696.34,3052.62,599.92,622.64,20.95,0000 0000 0000 0000 000000
2016-03-13 01:02:18,0.11,1.89,0.00,13.32,17.38,21.88,15.26,49.65,1027.36,2070.02,2855.37,2694.93,3051.05,599.57,622.21,21.00,0000 0000 0000 0000 000000
2016-03-13 01:07:19,0.11,1.89,0.00,13.34,17.39,21.87,15.23,49.68,1027.37,2070.00,2853.37,2693.62,3049.50,600.03,622.67,21.05,0000 0000 0000 0000 000000
2016-03-13 01:12:21,0.10,1.90,0.00,13.37,17.42,21.94,15.28,49.67,1027.39,2070.00,2851.38,2692.28,3047.99,599.79,622.41,21.10,0000 0000 0000 0000 000000
2016-03-13 01:17:22,0.11,1.91,0.00,13.41,17.44,21.96,15.25,49.62,1027.44,2070.00,2849.35,2690.84,3046.47,599.97,622.63,21.15,0000 0000 0000 0000 000000
2016-03-13 01:22:23,0.12,1.91,0.00,13.43,17.46,21.99,15.33,49.73,1027.49,2070.00,2847.21,2689.43,3044.80,600.22,622.61,21.20,0000 0000 0000 0000 000000
2016-03-13 01:27:24,0.11,1.92,0.00,13.45,17.48,21.99,15.31,49.73,1027.45,2069.98,2845.05,2687.90,3043.30,600.16,622.63,21.25,0000 0000 0000 0000 000000
2016-03-13 01:32:26,0.12,1.92,0.00,13.47,17.51,22.00,15.19,49.67,1027.47,2069.95,2842.97,2686.52,3041.59,599.74,622.16,21.30,0000 0000 0000 0000 000000
2016-03-13 01:37:27,0.12,1.93,0.00,13.50,17.54,22.05,15.29,49.73,1027.47,2069.97,2840.76,2684.99,3039.85,600.06,622.50,21.35,0000 0000 0000 0000 000000
2016-03-13 01:42:29,0.15,1.94,0.00,13.53,17.57,22.04,15.27,49.73,1027.46,2069.80,2837.92,2682.98,3037.46,599.99,622.26,21.40,0000 0000 0000 0000 000000
2016-03-13 01:47:30,0.11,1.95,0.00,13.58,17.59,22.09,15.31,49.65,1027.49,2069.38,2835.15,2680.99,3035.24,600.42,622.63,21.45,0000 0000 0000 0000 000000
2016-03-13 01:52:32,0.11,1.95,0.00,13.62,17.62,22.12,15.33,49.60,1027.48,2069.12,2832.83,2679.36,3033.45,600.26,622.43,21.50,0000 0000 0000 0000 000000
2016-03-13 01:57:33,0.11,1.96,0.00,13.64,17.64,22.15,15.22,49.58,1027.42,2069.03,2830.75,2677.88,3031.78,599.82,621.92,21.55,0000 0000 0000 0000 000000
2016-03-13 02:02:34,0.11,1.96,0.00,13.67,17.67,22.18,15.26,49.53,1027.41,2069.01,2828.86,2676.58,3030.34,599.79,621.75,21.60,0000 0000 0000 0000 000000
2016-03-13 02:07:36,0.10,1.97,0.00,13.70,17.69,22.19,15.19,49.65,1027.38,2069.00,2826.98,2675.33,3028.82,599.65,621.54,21.65,0000 0000 0000 0000 000000
2016-03-13 02:12:37,0.10,1.97,0.00,13.73,17.72,22.20,15.22,49.56,1027.40,2069.00,2825.14,2673.97,3027.40,599.73,621.67,21.70,0000 0000 0000 0000 000000
2016-03-13 02:17:39,0.09,1.98,0.00,13.77,17.74,22.21,15.28,49.65,1027.38,2069.00,2823.52,2672.77,3026.02,599.86,621.60,21.75,0000 0000 0000 0000 000000
2016-03-13 02:22:40,0.09,1.98,0.00,13.79,17.76,22.22,15.21,49.70,1027.40,2068.97,2821.94,2671.67,3024.74,599.91,621.57,21.80,0000 0000 0000 0000 000000
2016-03-13 02:27:41,0.09,1.99,0.00,13.83,17.78,22.23,15.16,49.58,1027.39,2068.96,2820.41,2670.58,3023.54,599.83,621.43,21.85,0000 0000 0000 0000 000000
2016-03-13 02:32:42,0.08,1.99,0.00,13.87,17.80,22.26,15.26,49.71,1027.40,2068.91,2818.73,2669.43,3022.20,600.06,621.46,21.90,0000 0000 0000 0000 000000
2016-03-13 02:37:44,0.08,2.00,0.00,13.91,17.83,22.28,15.22,49.79,1027.41,2068.81,2817.13,2668.30,3020.85,599.53,620.96,21.95,0000 0000 0000 0000 000000
2016-03-13 02:42:45,0.06,2.00,0.00,13.94,17.85,22.29,15.20,49.72,1027.53,2068.62,2815.54,2667.09,3019.56,599.80,621.22,22.00,0000 0000 0000 0000 000000
2016-03-13 02:47:47,0.07,2.00,0.00,13.98,17.87,22.31,15.24,49.76,1027.57,2068.22,2813.85,2665.85,3018.20,599.96,621.26,22.05,0000 0000 0000 0000 000000
2016-03-13 02:52:48,0.09,2.01,0.00,14.00,17.89,22.34,15.25,49.63,1027.50,2068.07,2812.15,2664.64,3016.78,600.11,621.40,22.10,0000 0000 0000 0000 000000
2016-03-13 02:57:49,0.09,2.01,0.00,14.04,17.92,22.36,15.16,49.56,1027.51,2068.02,2810.51,2663.51,3015.52,599.94,621.19,22.15,0000 0000 0000 0000 000000
2016-03-13 03:02:50,0.09,2.02,0.00,14.10,17.95,22.40,15.21,49.59,1027.45,2068.00,2808.84,2662.35,3014.16,600.00,621.04,22.20,0000 0000 0000 0000 000000
2016-03-13 03:07:51,0.09,2.02,0.00,14.15,17.98,22.42,15.21,49.49,1027.50,2068.00,2807.32,2661.11,3012.76,599.94,620.98,22.25,0000 0000 0000 0000 000000
2016-03-13 03:12:52,0.08,2.03,0.00,14.18,18.01,22.48,15.18,49.40,1027.56,2068.00,2805.85,2660.13,3011.58,599.86,620.89,22.30,0000 0000 0000 0000 000000
2016-03-13 03:17:54,0.08,2.03,0.00,14.22,18.04,22.53,15.18,49.49,1027.61,2067.99,2804.49,2659.12,3010.48,599.67,620.59,22.35,0000 0000 0000 0000 000000
2016-03-13 03:22:55,0.06,2.03,0.00,14.25,18.08,22.55,15.20,49.49,1027.66,2067.92,2803.07,2658.08,3009.35,600.20,620.95,22.40,0000 0000 0000 0000 000000
2016-03-13 03:27:57,0.05,2.04,0.00,14.30,18.12,22.58,15.18,49.62,1027.61,2067.63,2801.71,2657.06,3008.19,599.73,620.51,22.45,0000 0000 0000 0000 000000
2016-03-13 03:32:58,0.05,2.04,0.00,14.34,18.16,22.65,15.26,49.64,1027.65,2067.33,2800.43,2656.07,3007.14,600.12,620.61,22.50,0000 0000 0000 0000 000000
2016-03-13 03:37:59,0.07,2.04,0.00,14.38,18.21,22.67,15.14,49.49,1027.70,2067.08,2798.90,2654.93,3005.89,600.04,620.67,22.55,0000 0000 0000 0000 000000
2016-03-13 03:43:00,0.10,2.05,0.00,14.42,18.25,22.73,15.22,49.67,1027.72,2067.01,2797.38,2653.69,3004.63,600.27,620.80,22.60,0000 0000 0000 0000 000000
2016-03-13 03:48:02,0.09,2.05,0.00,14.46,18.29,22.76,15.26,49.75,1027.63,2067.00,2795.82,2652.65,3003.40,599.92,620.37,22.65,0000 0000 0000 0000 000000
2016-03-13 03:53:03,0.08,2.06,0.00,14.52,18.33,22.82,15.18,49.77,1027.56,2066.98,2794.36,2651.59,3002.05,599.62,619.91,22.70,0000 0000 0000 0000 000000
2016-03-13 03:58:05,0.09,2.06,0.00,14.57,18.38,22.85,15.23,49.65,1027.61,2066.97,2792.84,2650.40,3000.84,600.22,620.34,22.75,0000 0000 0000 0000 000000
2016-03-13 04:03:06,0.06,2.06,0.00,14.61,18.41,22.85,15.21,49.63,1027.65,2066.82,2791.46,2649.39,2999.68,600.14,620.17,22.80,0000 0000 0000 0000 000000
2016-03-13 04:08:07,0.04,2.07,0.00,14.66,18.45,22.92,15.18,49.63,1027.73,2066.35,2790.01,2648.39,2998.49,600.14,619.98,22.85,0000 0000 0000 0000 000000
2016-03-13 04:13:08,0.06,2.07,0.00,14.72,18.49,22.93,15.16,49.59,1027.79,2066.05,2788.58,2647.35,2997.30,599.97,619.87,22.90,0000 0000 0000 0000 000000
2016-03-13 04:18:10,0.08,2.07,0.00,14.76,18.52,22.97,15.12,49.71,1027.81,2066.01,2787.19,2646.26,2996.13,599.59,619.42,22.95,0000 0000 0000 0000 000000
2016-03-13 04:23:11,0.09,2.08,0.00,14.79,18.56,22.99,15.26,49.68,1027.80,2066.00,2785.73,2645.26,2994.94,600.19,619.88,23.00,0000 0000 0000 0000 000000
2016-03-13 04:28:12,0.08,2.08,0.00,14.82,18.58,23.04,15.25,49.71,1027.82,2065.99,2784.39,2644.19,2993.77,600.12,619.85,23.05,0000 0000 0000 0000 000000
2016-03-13 04:33:13,0.08,2.09,0.00,14.87,18.62,23.09,15.26,49.77,1027.84,2065.96,2782.89,2643.19,2992.52,600.06,619.74,23.10,0000 0000 0000 0000 000000
2016-03-13 04:38:15,0.07,2.09,0.00,14.90,18.65,23.10,15.26,49.64,1027.84,2065.85,2781.48,2642.16,2991.43,600.63,620.21,23.15,0000 0000 0000 0000 000000
2016-03-13 04:43:16,0.03,2.09,0.00,14.93,18.68,23.12,15.26,49.62,1027.84,2065.37,2779.95,2641.08,2990.19,600.29,619.90,23.20,0000 0000 0000 0000 000000
2016-03-13 04:48:17,0.07,2.10,0.00,14.96,18.72,23.16,15.22,49.66,1027.84,2065.07,2778.52,2639.99,2988.96,599.97,619.41,23.25,0000 0000 0000 0000 000000
2016-03-13 04:53:18,0.08,2.10,0.00,14.99,18.75,23.19,15.18,49.73,1027.85,2065.01,2776.98,2638.92,2987.72,599.80,619.26,23.30,0000 0000 0000 0000 000000
2016-03-13 04:58:19,0.08,2.10,0.00,15.02,18.78,23.22,15.19,49.77,1027.85,2065.00,2775.66,2637.90,2986.65,599.85,619.10,23.35,0000 0000 0000 0000 000000
2016-03-13 05:03:20,0.08,2.11,0.00,15.06,18.83,23.24,15.20,49.83,1027.85,2065.00,2774.24,2636.90,2985.49,600.01,619.24,23.40,0000 0000 0000 0000 000000
2016-03-13 05:08:21,0.07,2.11,0.00,15.10,18.87,23.29,15.15,49.70,1027.85,2064.99,2772.93,2635.93,2984.31,599.82,618.99,23.45,0000 0000 0000 0000 000000
2016-03-13 05:13:22,0.07,2.12,0.00,15.13,18.91,23.36,15.17,49.83,1027.85,2064.96,2771.65,2634.98,2983.24,600.08,619.21,23.51,0000 0000 0000 0000 000000
2016-03-13 05:18:24,0.04,2.12,0.00,15.16,18.96,23.39,15.15,49.82,1027.85,2064.63,2770.36,2633.96,2982.08,600.05,619.12,23.56,0000 0000 0000 0000 000000
2016-03-13 05:23:25,0.04,2.12,0.00,15.20,19.00,23.48,15.13,49.80,1027.85,2064.18,2769.02,2632.93,2980.88,599.84,618.64,23.61,0000 0000 0000 0000 000000
2016-03-13 05:28:26,0.08,2.12,0.00,15.21,19.05,23.53,15.27,49.77,1027.85,2064.04,2767.73,2631.94,2979.71,600.42,619.32,23.66,0000 0000 0000 0000 000000
2016-03-13 05:33:28,0.07,2.13,0.00,15.25,19.09,23.57,15.16,49.83,1027.85,2064.00,2766.44,2630.97,2978.58,600.01,618.89,23.71,0000 0000 0000 0000 000000
2016-03-13 05:38:29,0.09,2.13,0.00,15.28,19.14,23.60,15.22,49.92,1027.85,2064.00,2765.01,2629.90,2977.43,600.12,618.86,23.76,0000 0000 0000 0000 000000
2016-03-13 05:43:30,0.08,2.14,0.00,15.31,19.18,23.64,15.20,49.81,1027.85,2063.98,2763.65,2628.86,2976.21,600.28,618.98,23.81,0000 0000 0000 0000 000000
2016-03-13 05:48:32,0.07,2.14,0.00,15.33,19.22,23.71,15.12,49.67,1027.88,2063.92,2762.34,2627.82,2975.02,599.63,618.31,23.86,0000 0000 0000 0000 000000
2016-03-13 05:53:33,0.03,2.14,0.00,15.35,19.26,23.70,15.23,49.83,1027.95,2063.44,2760.87,2626.82,2973.77,600.16,618.94,23.91,0000 0000 0000 0000 000000
2016-03-13 05:58:34,0.06,2.15,0.00,15.39,19.29,23.73,15.09,49.64,1027.97,2063.04,2759.52,2625.77,2972.58,599.57,618.18,23.96,0000 0000 0000 0000 000000
2016-03-13 06:03:36,0.08,2.15,0.00,15.44,19.33,23.84,15.11,49.48,1028.17,2063.01,2758.09,2624.72,2971.42,600.07,618.68,24.01,0000 0000 0000 0000 000000
2016-03-13 06:08:37,0.08,2.15,0.00,15.46,19.36,23.83,15.20,49.58,1028.28,2063.00,2756.67,2623.67,2970.25,599.90,618.45,24.06,0000 0000 0000 0000 000000
2016-03-13 06:13:38,0.07,2.16,0.00,15.49,19.39,23.84,15.15,49.55,1028.28,2062.99,2755.19,2622.74,2968.97,600.03,618.45,24.11,0000 0000 0000 0000 000000
2016-03-13 06:18:39,0.09,2.16,0.00,15.52,19.42,23.87,15.13,49.43,1028.28,2062.97,2753.71,2621.72,2967.73,600.17,618.65,24.16,0000 0000 0000 0000 000000
2016-03-13 06:23:41,0.11,2.17,0.00,15.53,19.45,23.90,15.16,49.60,1028.28,2062.82,2751.70,2620.25,2966.09,599.70,618.17,24.21,0000 0000 0000 0000 000000
2016-03-13 06:28:42,0.21,2.18,0.00,15.57,19.48,23.90,15.17,49.59,1028.29,2062.36,2747.78,2617.48,2962.98,599.78,618.28,24.26,0000 0000 0000 0000 000000
2016-03-13 06:33:43,0.23,2.19,0.00,15.60,19.50,23.94,15.23,49.62,1028.33,2062.12,2743.60,2614.60,2959.77,600.40,618.75,24.31,0000 0000 0000 0000 000000
2016-03-13 06:38:45,0.17,2.20,0.00,15.62,19.53,23.99,15.17,49.47,1028.33,2062.02,2740.34,2612.36,2957.21,599.87,618.15,24.36,0000 0000 0000 0000 000000
2016-03-13 06:43:46,0.20,2.21,0.00,15.65,19.55,24.00,15.18,49.52,1028.33,2062.00,2737.24,2610.24,2954.84,599.98,618.26,24.41,0000 0000 0000 0000 000000
2016-03-13 06:48:47,0.25,2.22,0.00,15.68,19.58,23.99,15.14,49.58,1028.34,2062.00,2733.21,2607.47,2951.83,599.83,617.92,24.46,0000 0000 0000 0000 000000
2016-03-13 06:53:48,0.31,2.23,0.00,15.70,19.59,24.01,15.16,49.62,1028.34,2061.99,2728.10,2604.01,2948.00,600.16,618.32,24.51,0000 0000 0000 0000 000000
2016-03-13 06:58:49,0.38,2.25,0.00,15.73,19.62,24.05,15.20,49.53,1028.34,2061.96,2721.80,2599.81,2943.40,600.21,618.33,24.56,0000 0000 0000 0000 000000
2016-03-13 07:03:51,0.21,2.27,0.00,15.75,19.63,24.01,15.11,49.42,1028.34,2061.94,2717.49,2596.90,2940.19,599.88,617.97,24.61,0000 0000 0000 0000 000000
2016-03-13 07:08:52,0.17,2.28,0.00,15.77,19.64,24.09,15.14,49.47,1028.35,2061.79,2714.31,2594.66,2937.65,599.96,617.96,24.66,0000 0000 0000 0000 000000
2016-03-13 07:13:53,0.26,2.29,0.00,15.81,19.66,24.07,15.11,49.28,1028.34,2061.62,2709.87,2591.68,2934.30,600.03,617.93,24.71,0000 0000 0000 0000 000000
2016-03-13 07:18:54,0.37,2.30,0.00,15.82,19.67,24.07,15.14,49.38,1028.35,2061.30,2703.52,2587.32,2929.54,599.93,617.82,24.76,0000 0000 0000 0000 000000
2016-03-13 07:23:56,0.27,2.32,0.00,15.83,19.69,24.09,15.11,49.22,1028.36,2061.09,2698.10,2583.70,2925.50,600.02,617.90,24.81,0000 0000 0000 0000 000000
2016-03-13 07:28:57,0.24,2.33,0.00,15.87,19.69,24.11,15.18,49.27,1028.44,2061.03,2693.99,2580.89,2922.43,600.31,618.19,24.86,0000 0000 0000 0000 000000
2016-03-13 07:33:59,0.19,2.34,0.00,15.87,19.72,24.12,15.17,49.16,1028.68,2061.01,2690.58,2578.58,2919.84,600.14,618.17,24.91,0000 0000 0000 0000 000000
2016-03-13 07:39:00,0.21,2.35,0.00,15.89,19.72,24.14,15.14,49.22,1028.76,2061.00,2687.40,2576.31,2917.33,599.93,617.91,24.96,0000 0000 0000 0000 000000
2016-03-13 07:44:01,0.23,2.36,0.00,15.90,19.74,24.16,15.19,49.28,1028.81,2061.00,2683.64,2573.74,2914.52,600.53,618.59,25.01,0000 0000 0000 0000 000000
2016-03-13 07:49:02,0.20,2.38,0.00,15.92,19.75,24.16,15.09,49.25,1028.82,2061.00,2680.10,2571.36,2911.77,599.68,617.66,25.06,0000 0000 0000 0000 000000
2016-03-13 07:54:03,0.13,2.38,0.00,15.93,19.77,24.20,15.20,49.29,1028.82,2061.00,2677.75,2569.72,2909.88,600.18,618.20,25.11,0000 0000 0000 0000 000000
2016-03-13 07:59:05,0.10,2.39,0.00,15.95,19.79,24.17,15.13,49.22,1028.82,2060.99,2675.98,2568.51,2908.53,600.08,617.98,25.16,0000 0000 0000 0000 000000
2016-03-13 08:04:06,0.09,2.39,0.00,15.95,19.81,24.22,15.17,49.30,1028.83,2060.98,2674.51,2567.42,2907.32,599.79,617.71,25.21,0000 0000 0000 0000 000000
2016-03-13 08:09:07,0.14,2.40,0.00,15.98,19.83,24.24,15.16,49.33,1028.84,2060.96,2672.46,2565.91,2905.62,600.11,617.87,25.26,0000 0000 0000 0000 000000
2016-03-13 08:14:09,0.32,2.41,0.00,15.99,19.85,24.27,15.09,49.42,1028.90,2060.94,2667.71,2562.74,2902.14,600.08,617.88,25.31,0000 0000 0000 0000 000000
2016-03-13 08:19:10,0.31,2.43,0.00,16.00,19.87,24.26,15.13,49.58,1029.10,2060.77,2662.18,2559.09,2898.02,600.28,618.24,25.36,0000 0000 0000 0000 000000
2016-03-13 08:24:11,0.26,2.44,0.00,16.03,19.89,24.31,15.15,49.56,1029.15,2060.41,2656.97,2555.68,2894.05,599.95,617.88,25.41,0000 0000 0000 0000 000000
2016-03-13 08:29:12,0.17,2.46,0.00,16.04,19.91,24.34,15.11,49.39,1029.25,2060.13,2653.28,2553.13,2891.23,600.15,618.09,25.46,0000 0000 0000 0000 000000
2016-03-13 08:34:13,0.18,2.46,0.00,16.10,19.93,24.33,15.12,49.32,1029.28,2060.07,2650.49,2551.18,2888.99,600.15,618.00,25.51,0000 0000 0000 0000 000000
2016-03-13 08:39:15,0.37,2.48,0.00,16.13,19.94,24.36,15.08,49.29,1029.31,2060.02,2645.31,2547.53,2884.83,600.13,617.95,25.56,0000 0000 0000 0000 000000
2016-03-13 08:44:16,0.40,2.50,0.00,16.13,19.96,24.40,15.12,49.37,1029.31,2060.00,2638.84,2543.14,2880.07,599.96,617.67,25.61,0000 0000 0000 0000 000000
2016-03-13 08:49:18,0.44,2.52,0.00,16.11,19.97,24.39,15.16,49.46,1029.31,2060.00,2631.86,2538.43,2875.00,600.04,617.85,25.66,0000 0000 0000 0000 000000
2016-03-13 08:54:19,0.41,2.54,0.00,16.10,19.99,24.41,15.19,49.37,1029.31,2060.00,2625.25,2533.89,2869.96,600.23,617.94,25.71,0000 0000 0000 0000 000000
2016-03-13 08:59:20,0.47,2.56,0.00,16.09,19.99,24.41,15.13,49.26,1029.30,2060.00,2617.92,2528.92,2864.45,599.97,617.91,25.76,0000 0000 0000 0000 000000
2016-03-13 09:04:22,0.50,2.59,0.00,16.09,19.99,24.44,15.20,49.37,1029.31,2059.99,2609.88,2523.46,2858.46,600.29,618.26,25.81,0000 0000 0000 0000 000000
2016-03-13 09:09:23,0.51,2.61,0.00,16.07,19.99,24.47,15.11,49.21,1029.31,2059.99,2601.74,2518.00,2852.48,599.89,617.80,25.86,0000 0000 0000 0000 000000
2016-03-13 09:14:24,0.52,2.64,0.00,16.04,19.99,24.43,15.21,49.27,1029.31,2059.96,2593.47,2512.46,2846.33,600.29,618.33,25.91,0000 0000 0000 0000 000000
2016-03-13 09:19:25,0.53,2.67,0.00,16.04,19.99,24.46,15.20,49.27,1029.31,2059.97,2585.16,2506.90,2840.23,600.02,617.99,25.96,0000 0000 0000 0000 000000
2016-03-13 09:24:26,0.52,2.70,0.00,16.04,19.99,24.43,15.14,49.20,1029.31,2059.98,2576.74,2501.34,2834.10,600.18,618.18,26.01,0000 0000 0000 0000 000000
2016-03-13 09:29:28,0.49,2.72,0.60,16.04,19.99,24.45,15.11,49.18,1029.31,2059.96,2568.85,2496.12,2828.29,599.73,617.67,26.06,0000 0000 0000 0000 000000
2016-03-13 09:34:29,0.48,2.75,1.00,16.02,19.99,24.46,15.13,49.34,1029.31,2059.97,2561.28,2491.17,2822.68,599.76,617.70,26.11,0000 0000 0000 0000 000000
2016-03-13 09:39:31,0.41,2.77,1.00,15.99,19.99,24.42,15.12,49.35,1029.31,2059.97,2554.71,2486.60,2817.66,599.92,618.01,26.16,0000 0000 0000 0000 000000
2016-03-13 09:44:32,0.41,2.79,1.00,15.99,19.98,24.42,15.13,49.34,1029.31,2059.97,2548.58,2482.49,2813.17,599.87,617.97,26.21,0000 0000 0000 0000 000000
2016-03-13 09:49:33,0.41,2.81,1.00,15.96,19.97,24.42,15.23,49.38,1029.31,2059.96,2542.13,2478.09,2808.35,600.07,618.26,26.26,0000 0000 0000 0000 000000
2016-03-13 09:54:35,0.53,2.83,1.00,15.95,19.97,24.42,15.19,49.15,1029.31,2059.97,2534.68,2472.96,2802.46,600.06,618.25,26.31,0000 0000 0000 0000 000000
2016-03-13 09:59:36,0.65,2.86,0.37,15.94,19.97,24.42,15.12,49.23,1029.31,2059.91,2524.94,2466.45,2795.26,599.40,617.63,26.36,0000 0000 0000 0000 000000
2016-03-13 10:04:37,0.66,2.89,0.00,15.92,19.97,24.42,15.15,49.06,1029.31,2059.93,2514.99,2459.78,2787.99,599.80,617.97,26.41,0000 0000 0000 0000 000000
2016-03-13 10:09:38,0.61,2.93,0.00,15.92,19.97,24.42,15.24,49.09,1029.31,2059.93,2505.46,2453.43,2780.94,600.14,618.42,26.47,0000 0000 0000 0000 000000
2016-03-13 10:14:39,0.58,2.96,0.00,15.90,19.95,24.41,15.07,49.08,1029.31,2059.87,2496.54,2447.40,2774.28,599.63,617.90,26.52,0000 0000 0000 0000 000000
2016-03-13 10:19:41,0.53,2.99,0.00,15.89,19.94,24.37,15.18,49.14,1029.31,2059.90,2488.40,2441.88,2768.19,600.13,618.44,26.57,0000 0000 0000 0000 000000
2016-03-13 10:24:42,0.50,3.01,0.00,15.89,19.92,24.36,15.18,49.15,1029.31,2059.94,2480.84,2436.90,2762.71,600.13,618.38,26.62,0000 0000 0000 0000 000000
2016-03-13 10:29:43,0.49,3.04,0.67,15.89,19.91,24.32,15.11,49.20,1029.31,2059.98,2473.40,2432.04,2757.38,599.91,618.21,26.67,0000 0000 0000 0000 000000
2016-03-13 10:34:44,0.45,3.06,1.00,15.86,19.89,24.32,15.12,49.03,1029.31,2059.96,2466.67,2427.47,2752.29,599.49,618.09,26.72,0000 0000 0000 0000 000000
2016-03-13 10:39:45,0.45,3.08,1.00,15.84,19.88,24.32,15.09,49.08,1029.31,2059.98,2459.95,2423.01,2747.43,599.26,617.66,26.77,0000 0000 0000 0000 000000
2016-03-13 10:44:46,0.43,3.11,1.00,15.82,19.86,24.30,15.14,49.09,1029.31,2059.97,2453.52,2418.68,2742.65,599.73,618.22,26.82,0000 0000 0000 0000 000000
2016-03-13 10:49:47,0.40,3.13,1.00,15.81,19.84,24.26,15.12,49.07,1029.31,2059.98,2447.56,2414.69,2738.22,599.69,618.29,26.87,0000 0000 0000 0000 000000
2016-03-13 10:54:49,0.42,3.15,1.00,15.76,19.83,24.24,15.13,49.16,1029.30,2059.98,2441.43,2410.66,2733.84,599.81,618.51,26.92,0000 0000 0000 0000 000000
2016-03-13 10:59:50,0.43,3.17,0.33,15.75,19.81,24.20,15.21,49.13,1029.28,2059.99,2435.09,2406.37,2729.14,599.79,618.39,26.97,0000 0000 0000 0000 000000
2016-03-13 11:04:51,0.47,3.19,0.00,15.75,19.79,24.25,15.10,49.05,1029.19,2059.99,2428.47,2401.86,2724.12,599.71,618.26,27.02,0000 0000 0000 0000 000000
2016-03-13 11:09:53,0.44,3.21,0.00,15.73,19.77,24.16,15.12,49.22,1028.93,2059.99,2422.00,2397.47,2719.31,599.87,618.23,27.07,0000 0000 0000 0000 000000
2016-03-13 11:14:54,0.42,3.24,0.00,15.69,19.76,24.19,15.20,49.06,1028.89,2060.01,2415.87,2393.32,2714.67,600.24,618.81,27.12,0000 0000 0000 0000 000000
2016-03-13 11:19:55,0.40,3.26,0.00,15.68,19.74,24.18,15.18,49.06,1028.84,2060.01,2410.11,2389.45,2710.41,600.05,618.56,27.17,0000 0000 0000 0000 000000
2016-03-13 11:24:57,0.38,3.28,0.00,15.67,19.72,24.13,15.19,49.08,1028.83,2060.01,2404.60,2385.67,2706.18,600.22,618.66,27.22,0000 0000 0000 0000 000000
2016-03-13 11:29:58,0.36,3.30,0.00,15.64,19.71,24.13,15.14,49.03,1028.83,2060.04,2399.35,2382.13,2702.20,600.16,618.49,27.27,0000 0000 0000 0000 000000
2016-03-13 11:34:59,0.36,3.31,0.00,15.60,19.69,24.09,15.20,49.16,1028.83,2060.05,2394.07,2378.64,2698.34,599.94,618.56,27.32,0000 0000 0000 0000 000000
2016-03-13 11:40:01,0.34,3.33,0.00,15.61,19.67,24.06,15.11,49.16,1028.83,2060.14,2389.32,2375.44,2694.88,599.82,618.44,27.37,0000 0000 0000 0000 000000
2016-03-13 11:45:02,0.36,3.35,0.00,15.57,19.64,24.06,15.19,49.18,1028.81,2060.39,2384.77,2372.29,2691.38,600.19,618.91,27.42,0000 0000 0000 0000 000000
2016-03-13 11:50:03,0.34,3.37,0.00,15.55,19.63,24.05,15.19,49.09,1028.82,2060.69,2380.38,2369.39,2688.11,600.06,618.88,27.47,0000 0000 0000 0000 000000
2016-03-13 11:55:05,0.33,3.38,0.00,15.52,19.62,24.00,15.13,49.02,1028.82,2060.89,2375.85,2366.45,2684.77,599.78,618.60,27.52,0000 0000 0000 0000 000000
2016-03-13 12:00:06,0.31,3.40,0.00,15.49,19.59,23.97,15.15,49.06,1028.82,2060.96,2371.37,2363.47,2681.40,599.76,618.63,27.57,0000 0000 0000 0000 000000
2016-03-13 12:05:07,0.27,3.41,0.00,15.46,19.57,23.98,15.16,49.25,1028.82,2060.97,2367.41,2360.76,2678.42,599.88,618.99,27.62,0000 0000 0000 0000 000000
2016-03-13 12:10:09,0.24,3.43,0.00,15.44,19.55,23.97,15.20,49.27,1028.80,2060.97,2363.92,2358.32,2675.75,600.36,619.32,27.67,0000 0000 0000 0000 000000
2016-03-13 12:15:09,0.22,3.44,0.00,15.42,19.54,23.94,15.15,49.16,1028.79,2060.98,2360.72,2356.19,2673.39,600.09,619.12,27.72,0000 0000 0000 0000 000000
2016-03-13 12:20:11,0.22,3.45,0.00,15.40,19.52,23.90,15.22,49.25,1028.80,2060.99,2357.74,2354.10,2671.13,599.93,618.95,27.77,0000 0000 0000 0000 000000
2016-03-13 12:25:12,0.23,3.46,0.00,15.36,19.50,23.88,15.21,49.24,1028.81,2060.99,2354.62,2351.94,2668.66,599.80,618.97,27.82,0000 0000 0000 0000 000000
2016-03-13 12:30:13,0.24,3.47,0.00,15.37,19.48,23.87,15.15,49.19,1028.80,2060.99,2351.16,2349.62,2666.11,600.05,619.05,27.87,0000 0000 0000 0000 000000
2016-03-13 12:35:14,0.21,3.49,0.00,15.32,19.47,23.89,15.14,49.26,1028.81,2061.00,2348.09,2347.51,2663.77,600.07,619.37,27.92,0000 0000 0000 0000 000000
2016-03-13 12:40:15,0.18,3.50,0.00,15.29,19.44,23.83,15.11,49.31,1028.79,2061.01,2345.56,2345.71,2661.74,599.63,618.90,27.97,0000 0000 0000 0000 000000
2016-03-13 12:45:17,0.15,3.51,0.00,15.28,19.43,23.79,15.10,49.31,1028.71,2061.01,2343.33,2344.23,2660.07,599.72,619.14,28.02,0000 0000 0000 0000 000000
2016-03-13 12:50:18,0.18,3.51,0.00,15.24,19.41,23.81,15.25,49.30,1028.62,2061.06,2341.09,2342.67,2658.37,600.02,619.35,28.07,0000 0000 0000 0000 000000
2016-03-13 12:55:19,0.16,3.52,0.00,15.24,19.39,23.81,15.18,49.44,1028.49,2061.08,2338.81,2341.14,2656.71,599.87,619.05,28.12,0000 0000 0000 0000 000000